Regional Weather Roundup
Issued by NWS

Home | Current Version | Previous Version | Graphics & Text | Print | Product List | Glossary On
Versions: 1 2 3 4 5 6 7 8 9 10 11 12 13 14 15 16 17 18 19 20 21 22 23 24 25 26 27 28 29 30 31 32 33 34 35 36 37 38 39 40 41 42 43 44 45 46 47 48 49 50
000
ASUS43 KOAX 281002
RWRNE

WEATHER ROUNDUP FOR NEBRASKA
NATIONAL WEATHER SERVICE OMAHA NE
500 AM CDT FRI APR 28 2017

NOTES: SATELLITE DATA IS BEING USED TO AUGMENT CLOUD COVER ABOVE
       12000 FEET.
       "FAIR" INDICATES FEW OR NO CLOUDS BELOW 12,000 FEET WITH NO
       SIGNIFICANT WEATHER AND/OR OBSTRUCTIONS TO VISIBILITY.

  * THESE STATIONS DO NOT REPORT WEATHER SUCH AS RAIN...SNOW OR FOG.

NEZ001>004-019>022-054>056-281100-
NEBRASKA PANHANDLE

CITY           SKY/WX    TMP DP  RH WIND       PRES   REMARKS
SCOTTSBLUFF    LGT RAIN  37  34  89 E16       29.62R WCI  28
ALLIANCE       LGT SNOW  33  32  96 E8        29.64S FOG     WCI  26
CHADRON        LGT RAIN  39  36  89 E9        29.69R WCI  33
KIMBALL        CLOUDY    37  32  81 W9        29.59F WCI  31
SIDNEY         CLOUDY    36  35  96 SE8       29.61S WCI  30
$$

NEZ057>060-069>072-079>082-281100-
SOUTHWEST NEBRASKA

CITY           SKY/WX    TMP DP  RH WIND       PRES   REMARKS
NORTH PLATTE   RAIN      42  40  92 E8        29.65S
IMPERIAL       LGT RAIN  40  38  93 NE18      29.59F WCI  31
LEXINGTON      RAIN      43  40  89 E10G16    29.64S
MCCOOK         LGT RAIN  43  43 100 E13       29.59R FOG
OGALLALA       LGT SNOW  34  33  97 NE3       29.64S
$$

NEZ005>010-023>029-035>040-094-281100-
NORTH CENTRAL NEBRASKA

CITY           SKY/WX    TMP DP  RH WIND       PRES   REMARKS
VALENTINE      CLOUDY    40  29  64 E14       29.76R WCI  32
AINSWORTH      CLOUDY    38  33  82 E10       29.76R WCI  31
BROKEN BOW     RAIN      42  40  92 E15       29.68R
O`NEILL        CLOUDY    37  32  82 NE17      29.77S WCI  27
ORD            LGT RAIN  42  35  76 E14       29.71R
THEDFORD       LGT RAIN  40  39  95 E13       29.71R WCI  33
$$

NEZ041-046>049-061>064-073>077-083>087-281100-
SOUTH CENTRAL NEBRASKA

CITY           SKY/WX    TMP DP  RH WIND       PRES   REMARKS
GRAND ISLAND   RAIN      44  44 100 E13       29.68F FOG
AURORA         LGT RAIN  45  44  94 E13       29.68S
HASTINGS       RAIN      46  44  93 E10       29.67S FOG
HEBRON         LGT RAIN  46  46  97 E12G22    29.65F
HOLDREGE       LGT RAIN  43  42  95 E15       29.62F
KEARNEY *      CLOUDY    45  41  87 E15       29.66S
YORK           LGT RAIN  46  45  93 E13       29.70R
$$

NEZ011>018-030>034-042>045-281100-
NORTHEAST NEBRASKA

CITY           SKY/WX    TMP DP  RH WIND       PRES   REMARKS
NORFOLK        CLOUDY    37  31  78 E13G21    29.77S WCI  29
ALBION         CLOUDY    43  33  68 E16G23    29.73S
BLAIR          CLOUDY    42  34  73 NE14      29.78S
FREMONT        CLOUDY    42  34  73 E12G17    29.77F
TEKAMAH        CLOUDY    40  33  76 NE8       29.82S WCI  34
WAYNE          CLOUDY    34  32  93 E12       29.81S WCI  25
$$

NEZ050>053-065>068-078-088>093-281100-
SOUTHEAST NEBRASKA

CITY           SKY/WX    TMP DP  RH WIND       PRES   REMARKS
LINCOLN        LGT RAIN  48  41  76 E12       29.74R
OMAHA EPPLEY   CLOUDY    44  33  65 E16       29.78F
BEATRICE       RAIN      48  47  94 E12       29.71R
FALLS CITY     LGT RAIN  49  47  93 E14       29.70F
NEBRASKA CITY  LGT RAIN  46  40  79 E12       29.72F
PLATTSMOUTH    DRIZZLE   45  35  69 E12       29.75F
$$

NEZ044-045-051>053-067-281100-
OMAHA AREA

CITY           SKY/WX    TMP DP  RH WIND       PRES   REMARKS
OMAHA EPPLEY   CLOUDY    44  33  65 E16       29.78F
BLAIR          CLOUDY    42  34  73 NE14      29.78S
FREMONT        CLOUDY    42  34  73 E12G17    29.77F
MILLARD        CLOUDY    47  37  66 E9G16     29.76F
OFFUTT AFB     CLOUDY    46  35  66 NE14G21   29.75F
PLATTSMOUTH    DRIZZLE   45  35  69 E12       29.75F
WAHOO          DRIZZLE   44  36  73 NE15G23   29.75S
$$



USA.gov is the U.S. government's official web portal to all federal, state and local government web resources and services.